Weather History for Deer Park, WA

Change the Weather History Date:

Wednesday, April 24, 2013

  Actual Average Record
Temperature  
Mean Temperature 43 °F 46 °F  
Max Temperature 62 °F 60 °F 77 °F (2005)
Min Temperature 23 °F 33 °F 21 °F (2002)
Degree Days  
Heating Degree Days 22 19  
Month to date heating degree days 463 499  
Since 1 July heating degree days 6368 6706  
Cooling Degree Days 0 0  
Month to date cooling degree days 0 0  
Year to date cooling degree days 0 0  
Moisture  
Dew Point 28 °F    
Average Humidity 58    
Maximum Humidity 92    
Minimum Humidity 23    
Precipitation  
Precipitation 0.00 in 0.04 in 0.55 in (2014)
Month to date precipitation 1.74 1.33  
Year to date precipitation 5.22 7.65  
Sea Level Pressure  
Sea Level Pressure 30.18 in    
Wind  
Wind Speed 6 mph (South)    
Max Wind Speed 17 mph    
Max Gust Speed 24 mph    
Visibility 10 miles    
Events      
T = Trace of Precipitation, MM = Missing Value Source: NWS Daily Summary

Daily Weather History Graph

Daily Weather History Graph

Search for Another Location

Airport:

Trip Planner

Search our weather history database for the weather conditions in past years. The results will help you decide how hot, cold, wet, or windy it might be!

Date:

Astronomy

Apr. 24, 2013 Rise Set
Actual Time 5:43 AM PDT 7:53 PM PDT
Civil Twilight 5:09 AM PDT 8:27 PM PDT
Nautical Twilight 4:27 AM PDT 9:09 PM PDT
Astronomical Twilight 3:40 AM PDT 9:56 PM PDT
Moon 7:00 PM PDT (4/24) 4:54 AM PDT (4/24)
Length of Visible Light 15h 17m
Length of Day
14h 10m
Waxing Gibbous, 98% of the Moon is Illuminated
Apr 24
Waxing Gibbous
Apr 25
Full
May 2
Last Quarter
May 9
New
May 17
First Quarter

Hourly Weather History & Observations

Time (PDT) Temp. Windchill Dew Point Humidity Pressure Visibility Wind Dir Wind Speed Gust Speed Precip Events Conditions
12:53 AM 28.9 °F - 25.0 °F 85% 30.29 in 10.0 mi North - - N/A   Clear
1:53 AM 28.9 °F - 26.1 °F 89% 30.28 in 10.0 mi Calm Calm - N/A   Clear
3:53 AM 26.1 °F 21.9 °F 24.1 °F 92% 30.30 in 10.0 mi NE 3.5 mph - N/A   Clear
4:53 AM 25.0 °F 20.7 °F 23.0 °F 92% 30.30 in 10.0 mi ENE 3.5 mph - N/A   Clear
5:53 AM 25.0 °F - 21.9 °F 88% 30.30 in 10.0 mi Calm Calm - N/A   Clear
6:53 AM 30.0 °F 26.5 °F 27.0 °F 88% 30.31 in 10.0 mi North 3.5 mph - N/A   Clear
7:53 AM 37.0 °F 33.3 °F 30.0 °F 76% 30.30 in 10.0 mi SE 4.6 mph - N/A   Clear
8:53 AM 41.0 °F 39.0 °F 30.9 °F 67% 30.31 in 10.0 mi Variable 3.5 mph - N/A   Clear
9:53 AM 46.9 °F - 32.0 °F 56% 30.29 in 10.0 mi Variable 3.5 mph - N/A   Clear
10:53 AM 51.1 °F - 30.0 °F 44% 30.28 in 10.0 mi SSW 4.6 mph - N/A   Clear
11:53 AM 57.0 °F - 30.0 °F 36% 30.24 in 10.0 mi SSW 13.8 mph 20.7 mph N/A   Clear
12:53 PM 59.0 °F - 30.0 °F 33% 30.20 in 10.0 mi SW 10.4 mph - N/A   Clear
1:53 PM 60.1 °F - 28.0 °F 30% 30.17 in 10.0 mi WSW 8.1 mph - N/A   Clear
2:53 PM 61.0 °F - 27.0 °F 27% 30.14 in 10.0 mi SSW 12.7 mph - N/A   Clear
3:53 PM 61.0 °F - 27.0 °F 27% 30.11 in 10.0 mi SW 13.8 mph - N/A   Clear
4:53 PM 62.1 °F - 25.0 °F 24% 30.08 in 10.0 mi SW 15.0 mph - N/A   Clear
5:53 PM 60.1 °F - 27.0 °F 28% 30.06 in 10.0 mi SSW 12.7 mph 19.6 mph N/A   Clear
6:53 PM 57.9 °F - 28.9 °F 33% 30.04 in 10.0 mi SW 11.5 mph - N/A   Clear
7:53 PM 50.0 °F - 32.0 °F 50% 30.03 in 10.0 mi South 6.9 mph - N/A   Clear
8:53 PM 48.0 °F - 30.0 °F 50% 30.02 in 10.0 mi South 8.1 mph - N/A   Clear
9:53 PM 48.0 °F - 30.9 °F 52% 30.01 in 10.0 mi South 10.4 mph - N/A   Clear
10:53 PM 42.1 °F 40.2 °F 28.9 °F 60% 29.99 in 10.0 mi NE 3.5 mph - N/A   Clear
11:53 PM 37.0 °F - 28.9 °F 73% 29.99 in 10.0 mi Calm Calm - N/A   Clear